Temp
20 21 21 20 21 21 21 22 22 21 21 22 22 22 22 22 22 22 22 22 22 22 22 22 22 22 22 22 23 23 23 23 23 23 23 23 23 23 23 23 23 23 23 23 23 23 23 23 23 23 23 23 23 23 23 23 23 23 22 22 22 22 22 22 22 22 22 22 21 21 21 21 21 21 21 21 21 20 20 20 20 20 20 20 20
20 21 21 20 21 21 21 22 22 22 21 22 22 22 22 22 22 22 22 22 22 22 22 22 22 22 22 22 22 23 23 23 23 23 23 23 23 23 23 24 23 23 23 23 23 23 23 23 23 23 23 23 23 23 23 23 23 23 23 22 22 22 22 22 22 22 22 22 22 21 21 21 21 21 21 21 21 21 21 20 20 20 20 20 20
21 21 21 20 21 21 21 21 21 21 22 22 22 22 22 22 22 22 22 22 22 22 22 22 22 22 22 22 22 23 23 23 23 23 23 23 23 24 24 24 24 23 23 23 23 23 23 23 23 23 22 22 22 23 23 23 23 23 23 22 22 22 22 22 22 22 22 22 22 22 21 21 21 21 21 21 21 21 20 20 20 20 20 20 20
21 21 21 21 21 21 21 21 21 22 22 22 22 22 22 22 22 22 22 22 22 22 22 22 22 22 22 22 22 23 23 23 23 23 23 23 24 24 24 24 24 23 23 23 23 23 23 23 23 23 23 22 22 23 23 23 23 23 22 22 22 22 22 22 22 22 22 22 22 22 21 21 21 21 20 21 21 21 20 20 20 20 20 20 20
21 21 21 21 21 21 21 22 22 22 22 22 22 22 22 22 22 22 22 22 22 22 22 22 22 22 22 22 22 23 23 23 23 23 23 23 23 23 24 24 24 23 23 23 23 24 23 23 23 23 23 22 22 22 23 23 23 23 22 22 22 22 22 22 22 22 22 22 22 22 21 21 21 20 20 21 20 20 20 20 20 20 20 20 20
21 21 21 21 21 21 21 22 22 22 22 22 22 22 22 22 22 22 22 22 22 22 22 22 22 22 22 22 23 23 23 23 23 23 23 23 23 23 23 24 24 23 23 23 24 24 24 23 23 23 22 22 22 22 22 22 22 22 22 22 22 22 21 21 21 21 22 22 22 22 22 21 21 21 20 21 21 20 20 20 20 20 20 20 20
21 21 21 21 21 21 21 22 22 22 22 22 22 22 22 22 22 22 22 22 22 22 22 22 22 22 22 23 23 23 23 23 23 23 23 23 23 23 23 24 24 24 24 24 24 23 23 23 23 23 22 22 22 22 22 22 22 22 22 22 22 22 22 21 21 21 21 22 22 22 22 21 21 21 20 20 21 20 20 20 20 20 20 20 20
21 21 21 21 21 21 21 21 22 22 22 22 22 22 22 22 22 22 22 22 22 22 22 22 22 22 23 23 23 23 23 23 23 23 23 23 23 23 24 24 24 24 24 24 23 23 23 23 23 23 22 22 21 21 21 22 22 22 22 22 22 22 22 22 21 21 21 21 22 22 22 21 21 21 21 20 21 21 20 20 20 20 20 20 20
21 22 22 22 21 21 21 21 22 22 22 22 22 22 22 22 22 22 22 22 22 22 22 22 22 22 23 23 23 23 23 23 23 23 23 23 23 24 24 24 24 24 24 23 23 23 23 23 23 23 22 22 21 21 21 21 21 22 22 22 22 22 22 22 21 21 21 21 21 21 21 21 21 21 21 20 21 21 21 20 20 20 20 20 20
21 22 22 22 21 21 21 21 22 22 22 22 22 22 22 22 22 22 22 22 22 22 22 22 23 23 23 23 23 23 23 23 23 23 23 23 23 23 23 23 23 23 23 23 23 24 24 23 23 23 22 22 21 22 22 22 21 22 22 22 22 22 21 21 21 21 21 21 21 21 21 21 21 21 21 20 21 21 21 20 20 20 20 20 20
21 21 22 22 22 21 21 21 21 21 22 22 22 22 22 22 22 22 22 22 22 22 22 22 23 23 23 23 23 23 23 22 23 23 23 23 23 23 23 23 23 23 23 23 24 24 24 24 23 23 23 22 22 22 22 22 21 21 22 22 22 22 21 21 22 21 21 21 21 21 21 21 21 21 20 20 21 21 21 21 20 20 20 20 20
21 21 21 22 22 22 22 22 22 21 22 22 22 22 22 22 22 22 22 22 22 22 23 23 23 23 23 23 23 23 23 23 23 23 23 23 23 23 23 23 23 23 23 23 23 24 24 24 23 23 23 22 22 22 21 21 21 21 22 22 22 22 21 21 21 21 21 21 21 21 21 21 21 21 20 20 21 21 20 21 20 20 20 20 20
21 21 21 21 21 22 22 22 22 22 22 22 22 22 22 22 22 22 22 22 22 22 23 23 23 23 23 23 23 23 23 23 23 23 23 23 23 23 23 23 23 23 23 23 23 23 23 23 23 23 23 23 22 22 22 21 21 21 21 22 22 22 22 21 21 21 21 21 21 21 21 21 21 21 20 20 21 21 20 21 20 20 20 20 20
21 21 21 21 22 22 22 23 23 22 22 22 22 22 22 22 22 22 22 22 23 23 23 23 23 23 23 23 23 23 23 23 23 23 23 23 23 23 23 23 23 23 23 23 23 23 23 23 23 23 23 23 22 22 22 22 21 21 21 21 22 22 22 21 21 21 21 21 21 21 21 21 21 21 20 20 21 20 20 20 20 20 20 20 20
21 21 22 22 22 22 22 22 22 22 22 22 22 22 22 22 22 23 23 23 23 23 23 23 23 23 23 23 23 23 23 23 23 23 23 23 23 23 23 24 23 23 23 23 23 23 23 23 23 23 23 23 22 22 22 22 21 21 21 21 22 22 22 22 22 21 21 21 21 21 21 21 21 21 21 21 21 20 20 20 20 20 20 20 20
22 22 21 22 21 22 22 22 22 22 22 22 22 22 22 23 23 23 23 23 23 23 23 23 23 23 23 23 23 23 23 23 23 23 23 23 23 23 23 23 23 23 23 23 23 23 23 23 23 23 23 23 22 22 22 22 21 21 21 21 21 21 22 22 22 22 21 21 21 21 21 21 21 21 21 21 21 20 20 20 20 20 20 20 20
22 22 22 22 22 22 22 22 22 22 23 22 22 23 23 23 23 23 23 23 23 23 23 23 23 23 23 23 23 23 23 23 23 23 23 23 23 23 23 23 23 23 23 23 23 23 23 23 23 23 23 23 23 22 22 21 21 21 21 20 21 21 22 22 22 22 22 21 21 21 21 21 21 21 21 21 21 20 20 20 20 20 20 20 20
22 22 22 22 22 22 22 22 22 22 22 22 22 22 23 23 23 23 23 23 23 23 23 23 23 23 23 23 23 23 23 23 23 23 23 23 23 23 23 23 23 23 23 23 23 23 23 23 23 23 23 23 22 22 21 21 21 22 21 21 21 21 21 22 22 22 22 22 21 21 21 21 21 21 21 21 21 20 20 20 20 20 20 20 20
22 22 22 22 22 22 22 22 22 22 22 22 22 22 22 22 22 22 22 23 23 23 23 23 23 23 23 22 23 23 23 23 23 23 23 23 23 23 23 23 23 23 23 23 23 23 23 23 23 23 23 22 22 21 21 21 22 22 22 21 21 21 21 22 22 23 22 22 22 21 22 21 21 21 21 21 21 20 20 20 20 20 20 20 21
22 22 22 22 22 22 22 22 22 22 22 22 22 22 22 22 22 22 22 22 22 22 22 22 22 22 22 22 22 22 23 23 23 23 23 23 23 23 23 23 23 23 23 23 23 23 23 23 23 23 22 22 22 21 21 21 22 22 21 21 21 22 22 21 22 23 23 22 22 22 21 21 21 21 21 21 21 20 21 21 20 20 20 20 20
21 21 22 22 22 22 22 22 22 22 22 22 22 22 22 22 22 22 22 22 22 22 22 22 22 22 22 22 22 22 23 23 23 23 23 24 23 23 23 23 23 23 23 23 23 23 23 23 23 23 22 22 22 22 21 21 22 22 21 21 21 22 22 21 22 22 23 23 22 22 21 21 21 21 21 21 21 20 21 21 21 21 21 20 20
21 21 22 22 22 22 22 22 23 22 22 22 22 22 22 22 22 22 22 22 22 22 22 22 22 22 22 22 22 23 23 23 23 23 23 24 23 23 23 23 23 23 23 23 23 23 23 23 23 23 22 22 22 22 22 22 22 22 22 22 22 22 22 21 21 22 22 22 22 22 21 21 21 21 21 21 21 21 21 21 21 21 21 21 20
21 21 21 22 22 22 22 22 23 23 22 22 22 22 22 22 22 22 22 22 22 22 22 22 22 22 22 22 22 23 23 23 23 23 23 23 24 23 23 23 23 23 23 23 23 23 23 23 23 23 23 23 23 23 22 22 22 22 22 22 22 22 22 22 22 22 22 22 22 22 21 21 21 21 21 21 21 21 21 21 21 21 21 21 21
21 21 21 21 22 22 22 22 22 22 22 22 22 22 22 22 22 22 22 22 22 22 22 22 22 22 22 22 22 23 23 23 23 23 23 23 23 23 23 23 23 23 23 23 23 23 23 23 23 23 23 23 23 23 23 23 22 22 22 22 22 22 22 22 22 22 22 22 22 21 21 21 21 21 21 21 21 21 21 21 21 21 21 21 21
21 21 21 21 22 22 22 22 22 22 22 22 22 22 22 22 22 22 22 23 23 23 23 22 22 22 22 22 22 22 23 23 23 23 23 23 23 23 23 23 23 23 23 23 23 23 23 23 23 23 22 22 23 23 23 23 22 22 22 22 22 22 22 22 22 22 22 22 22 21 21 22 22 21 21 21 21 21 20 20 21 21 22 21 21
21 21 21 22 22 22 22 23 23 22 22 22 22 22 22 22 22 22 23 23 23 23 23 23 22 22 22 22 22 22 23 23 23 23 23 23 23 23 23 22 22 23 23 23 23 23 23 23 23 22 22 22 22 22 22 22 22 22 22 22 22 22 22 22 22 22 22 22 22 22 22 22 22 22 21 21 21 21 20 20 20 21 21 22 21
21 22 22 22 22 22 22 23 23 22 22 22 22 22 22 22 22 22 23 23 23 23 23 23 23 23 23 23 22 22 22 23 23 23 23 22 23 23 23 23 23 23 23 23 23 23 23 23 22 22 22 22 22 22 22 22 22 22 22 22 22 22 22 22 21 21 21 22 22 22 22 22 22 21 21 21 21 20 20 20 20 20 21 21 22
22 22 22 22 22 23 23 23 23 23 23 22 22 22 22 22 22 22 22 22 23 23 23 23 23 23 23 23 23 22 23 23 23 23 23 23 23 23 23 23 23 23 23 23 23 23 23 22 22 22 22 22 22 22 22 21 21 21 21 21 22 22 22 21 21 21 21 21 22 22 22 22 22 21 21 21 21 21 21 20 20 20 21 21 21
22 22 22 22 23 23 23 23 23 23 23 22 22 22 22 22 22 22 22 22 23 23 23 23 23 23 23 23 23 23 23 23 23 23 23 23 23 23 23 23 23 22 23 23 22 22 22 22 22 22 22 22 22 22 21 21 21 21 21 21 21 21 21 22 21 21 21 21 21 21 21 22 22 21 21 21 21 21 21 21 20 20 20 21 20
22 22 22 22 23 23 23 23 23 23 23 23 22 22 22 22 22 22 22 22 23 23 23 23 23 23 23 23 23 23 23 23 23 23 23 23 23 23 23 23 23 22 22 22 22 22 22 22 21 21 21 21 21 21 21 21 22 21 21 21 21 21 21 21 22 22 21 21 21 21 21 21 21 21 21 21 21 21 21 21 21 20 20 21 20
22 22 22 22 23 23 23 23 23 23 23 23 23 23 23 23 23 23 22 23 23 23 23 23 23 23 23 23 23 23 23 23 23 23 23 23 23 23 23 23 22 22 22 22 22 21 21 21 21 21 21 21 21 21 21 21 22 21 21 21 21 21 21 21 21 21 21 21 21 21 21 21 21 21 21 21 21 22 21 21 21 21 20 20 21
22 22 23 23 22 23 23 23 23 23 23 23 23 23 23 23 23 23 23 23 23 23 23 23 23 23 23 23 23 23 23 23 23 23 23 23 23 23 23 23 22 22 22 22 21 21 21 21 21 21 21 21 21 20 20 21 21 21 21 21 21 21 21 21 21 21 21 21 21 21 21 21 21 21 21 21 21 22 22 21 21 21 21 20 20
22 22 23 23 23 23 23 23 23 23 23 23 23 23 23 23 23 23 23 23 23 23 23 23 23 23 23 23 23 23 23 23 23 23 23 23 23 23 23 23 22 22 22 22 21 21 21 20 20 20 20 20 20 20 21 21 20 20 20 20 20 21 20 21 21 21 21 21 21 21 21 21 21 21 21 21 21 21 21 21 21 21 21 20 20
23 22 23 23 24 23 23 24 24 24 24 23 23 23 23 23 23 23 23 23 23 23 23 23 23 23 23 23 23 23 23 23 23 22 23 23 23 23 23 22 22 22 22 21 21 21 21 20 20 20 20 20 20 21 21 21 21 21 21 20 20 20 20 20 21 21 21 21 21 21 21 21 21 21 21 21 21 20 20 21 21 21 21 21 21
23 23 23 24 24 23 23 24 24 24 24 24 24 24 24 24 24 23 23 23 23 23 23 23 23 23 23 23 23 23 23 23 22 22 22 23 23 23 23 22 22 22 21 21 21 21 20 20 20 20 20 20 20 20 20 21 21 21 21 20 20 20 20 20 20 20 20 21 21 21 21 20 21 21 21 21 21 21 21 20 21 21 21 20 20
24 24 23 24 24 23 24 24 24 24 24 24 24 24 24 24 24 24 24 24 24 23 24 23 23 23 23 23 23 22 22 22 22 22 22 22 23 22 22 22 21 21 21 21 20 20 20 20 20 20 21 21 21 20 20 20 20 20 20 20 20 20 20 20 20 21 21 21 21 21 20 20 20 20 20 21 21 21 21 21 21 21 21 20 20
24 24 24 23 23 23 24 24 24 24 24 24 24 24 24 24 24 24 24 24 23 23 24 23 23 23 23 22 23 22 22 22 23 23 22 22 22 22 22 21 21 21 21 20 20 20 20 20 20 20 20 20 20 20 20 20 20 19 20 20 20 20 21 20 20 20 21 21 21 20 20 20 20 20 20 21 21 21 21 21 21 21 21 20 20
24 24 24 24 24 24 24 24 24 24 24 24 24 24 24 24 24 23 23 23 23 23 23 23 22 22 23 23 23 23 23 22 23 23 22 22 22 21 21 21 21 21 21 20 20 20 20 20 20 20 20 20 20 20 20 20 19 19 19 20 20 20 20 20 20 20 20 20 20 21 20 20 20 20 20 20 21 21 21 21 21 21 21 21 21
24 24 24 25 25 25 24 24 24 24 24 24 24 24 24 23 23 23 22 22 23 23 23 23 22 23 23 23 23 23 22 22 22 22 22 22 22 21 21 21 21 21 21 21 20 20 20 20 20 20 20 20 20 20 20 19 19 19 20 20 20 20 20 20 20 20 20 20 20 20 20 20 20 20 20 20 20 20 20 20 20 20 21 21 21
24 24 24 24 25 25 25 24 24 24 24 24 23 23 23 23 23 22 22 22 23 23 23 23 23 23 23 22 22 23 22 22 22 22 22 22 22 22 21 21 21 21 21 21 20 20 20 20 20 20 20 20 20 20 19 19 19 19 19 19 20 20 20 20 20 20 20 20 20 20 20 20 20 20 20 20 20 19 19 19 19 19 19 20 20
24 24 24 24 24 25 24 24 24 24 24 24 23 23 23 23 22 22 22 22 23 23 23 22 22 22 22 22 22 22 22 22 22 22 22 22 22 22 22 22 22 22 21 21 20 20 20 20 20 19 20 19 19 19 18 18 18 18 18 19 20 20 20 20 20 20 20 20 20 21 20 20 20 20 20 20 20 20 20 20 19 19 19 19 20
24 24 24 24 24 25 25 25 25 24 24 23 23 23 23 23 23 23 23 23 23 23 23 23 22 22 22 22 22 22 22 22 22 21 21 22 22 22 22 22 22 21 21 20 20 20 20 20 20 20 19 19 18 18 18 18 18 18 18 18 19 20 20 20 20 20 19 20 20 21 20 20 20 20 20 20 20 20 21 20 20 20 20 20 20
24 24 24 24 24 25 24 25 25 24 24 23 23 23 23 23 23 23 23 23 23 23 23 23 22 22 22 22 22 22 22 22 21 21 22 22 22 22 22 22 21 21 21 21 21 21 21 20 20 19 19 18 18 18 18 18 18 18 18 18 18 19 20 20 20 20 19 20 20 20 20 20 20 20 20 20 20 20 20 21 21 20 20 20 20
24 24 24 24 24 24 25 25 25 24 24 23 23 24 24 24 23 23 23 23 23 23 22 22 22 22 22 22 22 22 22 22 22 22 22 22 22 22 21 21 21 21 21 20 20 20 20 20 20 19 18 18 18 18 18 18 18 18 18 18 18 17 19 19 18 20 20 20 20 20 20 20 20 20 20 20 20 20 20 20 20 20 20 21 21
24 24 24 24 24 25 25 25 25 24 24 24 24 24 24 23 23 23 22 22 22 22 22 22 22 22 22 22 22 22 22 22 22 22 22 22 21 21 21 21 21 21 20 20 20 20 20 20 20 19 19 18 18 18 18 18 18 18 18 18 18 18 18 18 18 20 20 20 20 20 20 20 20 20 20 20 20 20 20 20 20 19 19 20 20
24 24 24 24 24 25 25 25 25 24 24 25 24 24 24 23 23 22 22 22 22 22 22 22 22 23 23 23 22 22 22 22 22 22 22 21 21 21 21 21 21 20 20 20 20 20 20 20 20 20 19 19 19 18 18 18 18 18 18 18 19 18 18 18 18 19 19 20 20 20 20 20 20 20 20 20 20 20 20 19 19 19 19 19 19
24 24 24 24 24 25 25 25 25 24 24 25 24 24 23 23 23 23 23 22 22 22 23 23 23 23 23 23 23 22 22 22 22 22 21 21 21 21 21 21 20 20 20 20 20 20 20 20 20 20 19 19 19 18 18 18 18 18 18 18 18 18 18 18 18 18 18 19 20 20 20 21 20 20 20 20 20 20 20 19 19 19 19 19 18
24 24 24 24 24 25 25 25 25 24 25 25 24 24 24 23 23 23 23 23 23 24 24 23 23 23 23 23 23 22 22 22 22 21 21 21 21 21 21 20 20 20 20 20 20 20 20 20 20 20 19 19 19 19 18 18 18 18 18 18 18 18 18 17 17 17 17 18 19 19 20 20 21 20 20 20 20 20 20 20 19 19 19 19 19
24 24 24 24 24 25 25 25 25 24 24 24 24 24 24 24 23 23 23 23 24 24 24 23 23 23 23 23 22 22 22 22 21 21 21 21 21 21 20 20 20 20 20 20 20 20 20 20 20 19 19 19 19 19 19 19 18 18 18 18 18 17 17 17 16 16 16 17 18 18 18 18 19 20 20 20 20 20 19 19 19 19 19 19 19
24 24 24 24 24 25 25 24 24 24 24 24 24 24 24 24 24 23 23 23 23 23 23 23 23 23 23 23 22 22 22 21 21 21 21 21 21 21 20 20 20 20 20 20 20 20 19 19 19 19 19 19 19 19 19 19 19 19 18 18 18 17 17 16 16 16 16 17 17 17 16 16 17 19 19 19 19 20 19 19 19 19 19 19 19
24 24 24 24 24 24 24 24 24 24 24 24 24 24 24 24 24 24 24 24 23 23 23 23 23 23 23 22 22 22 22 21 21 21 21 21 21 20 20 20 20 20 20 20 20 19 19 19 19 19 19 19 19 19 19 19 19 19 19 18 18 18 17 17 17 16 16 16 16 16 15 15 16 17 19 19 19 19 19 19 19 19 19 19 19
Height
810 808 809 810 812 812 813 813 814 816 818 818 818 818 818 820 821 822 824 825 825 827 828 829 830 830 831 832 833 834 834 835 836 837 838 838 838 839 839 840 840 841 841 841 842 841 841 841 841 842 842 842 842 842 842 842 842 842 842 841 841 841 841 842 842 842 842 842 842 841 842 841 841 841 841 841 841 841 841 841 841 842 843 843 843
810 809 810 812 814 813 814 813 815 817 818 818 819 819 819 821 821 823 825 826 827 828 829 830 831 832 833 834 835 835 835 836 837 838 839 839 839 840 840 841 841 842 842 842 842 842 842 842 843 843 843 843 843 843 843 843 843 843 843 842 842 842 842 842 843 843 843 842 842 842 842 842 842 841 841 841 841 841 841 842 842 843 844 844 844
809 810 812 814 815 814 815 816 817 818 818 819 819 820 820 822 822 824 825 827 828 829 831 831 833 834 835 835 836 836 837 838 838 839 840 840 840 840 840 841 842 842 843 843 843 843 843 844 844 844 844 844 844 844 844 844 844 844 844 843 843 843 843 843 843 843 843 843 843 843 843 843 842 842 842 842 842 842 842 842 843 843 844 845 845
809 810 812 814 815 815 816 817 817 817 819 819 820 821 822 823 823 825 826 828 829 831 832 833 834 835 836 836 837 837 838 839 840 840 841 841 841 841 841 841 842 843 843 843 844 844 844 845 845 845 845 845 845 845 845 846 846 846 845 845 844 844 844 844 843 843 843 843 843 843 843 843 843 843 843 843 842 842 843 843 843 844 845 845 845
809 810 811 813 814 815 816 816 817 818 819 820 821 822 824 825 825 827 828 830 831 832 834 834 835 836 837 837 837 838 839 840 841 841 841 841 841 842 842 842 843 843 844 844 844 845 845 845 845 846 846 846 846 847 847 847 847 847 846 846 846 845 845 844 844 844 844 843 843 843 843 843 843 843 843 843 843 843 843 844 844 845 845 846 846
809 809 810 812 814 814 816 817 818 819 821 821 823 824 825 826 827 829 830 831 832 834 835 836 836 837 837 838 838 839 840 841 842 842 842 843 843 843 843 843 844 844 845 845 845 846 846 846 847 847 848 848 849 849 849 849 849 848 848 847 847 846 845 845 845 845 845 844 844 844 844 843 843 843 843 843 843 844 844 844 845 846 846 847 847
808 808 810 812 814 815 817 818 819 821 822 823 824 825 826 827 829 830 832 833 834 835 836 837 837 838 838 839 839 840 841 842 843 843 843 844 844 844 844 845 845 846 846 846 847 847 847 848 848 849 850 851 851 851 851 849 849 848 848 848 848 847 846 846 845 845 845 844 844 844 844 844 844 843 844 844 844 844 844 845 845 846 847 847 848
809 809 811 814 815 816 818 819 821 822 823 824 825 826 828 829 830 831 833 834 836 837 838 838 838 839 839 840 841 842 842 843 844 844 845 845 846 846 846 846 846 847 847 848 848 848 849 849 849 850 851 853 853 852 851 849 848 848 848 848 848 848 847 846 845 845 845 845 845 845 845 844 844 844 844 844 844 845 845 845 846 847 847 848 849
811 810 812 815 816 817 819 820 822 823 824 825 826 827 829 830 832 833 835 836 837 838 839 839 840 841 841 842 843 844 844 845 845 846 846 847 848 848 848 848 848 849 849 849 849 849 849 850 850 851 853 854 854 851 850 849 848 848 848 848 849 849 848 847 846 846 846 846 846 846 846 845 845 844 845 845 845 845 845 846 847 848 848 849 849
814 812 813 815 817 818 820 822 823 825 826 827 828 829 830 832 833 835 836 838 839 839 840 841 842 843 844 845 845 846 847 847 848 848 848 849 849 849 850 850 850 850 850 850 850 850 849 850 851 852 853 854 853 850 849 850 849 849 849 849 849 849 849 849 848 847 846 846 846 847 847 847 846 846 846 846 846 846 846 846 847 848 849 849 850
816 816 815 816 818 819 821 823 824 826 827 828 830 831 832 834 835 836 838 839 840 840 841 843 843 844 846 847 847 848 849 849 849 849 850 850 850 851 851 851 851 851 851 851 851 850 850 850 851 852 853 854 853 850 850 850 850 849 849 849 849 849 849 849 849 848 847 847 847 847 848 848 848 847 847 847 847 847 847 847 848 849 850 850 851
818 819 818 819 820 821 823 824 826 828 829 830 832 832 834 835 836 837 839 840 841 842 843 844 845 846 847 848 849 849 850 850 850 851 851 851 851 852 852 852 852 852 852 852 851 851 850 850 851 852 853 853 853 851 851 851 850 849 849 849 848 849 849 849 849 848 848 847 847 847 848 848 848 849 848 848 848 848 848 848 848 849 850 851 851
819 820 821 822 822 824 825 826 827 829 830 831 833 834 835 836 837 838 840 841 842 843 844 845 846 847 848 849 849 850 850 851 851 851 852 852 852 852 852 852 852 853 853 852 852 851 850 850 851 852 852 853 853 852 852 851 850 849 849 849 848 849 849 849 849 849 848 848 847 848 848 848 849 849 849 849 849 849 849 849 849 850 850 851 852
820 821 822 823 823 825 826 828 829 830 831 832 834 835 836 837 838 839 840 841 843 844 845 846 847 848 849 849 850 850 851 851 852 852 852 852 852 852 852 852 852 853 853 853 852 851 851 851 851 851 852 852 852 852 852 851 850 850 850 850 849 849 849 849 849 849 849 848 848 848 848 848 848 849 850 850 850 850 850 850 850 850 851 851 852
820 821 822 824 824 826 827 829 829 831 832 833 834 835 837 838 839 840 841 842 843 845 846 847 848 849 849 850 851 851 851 851 852 852 852 852 852 852 852 852 852 853 853 853 852 852 851 851 851 851 852 852 851 852 852 852 851 850 850 850 849 848 848 848 849 849 849 849 849 849 848 848 848 849 850 850 851 851 851 851 851 851 851 852 853
821 822 823 825 826 827 828 830 831 832 833 834 835 836 837 838 839 840 842 843 844 846 847 848 848 850 850 851 851 851 852 852 852 852 852 853 853 853 853 853 852 853 853 853 852 852 851 850 851 851 851 851 851 851 851 852 852 851 850 850 849 849 849 848 848 849 849 849 849 849 849 848 848 849 850 850 851 852 851 851 852 852 852 853 853
822 823 824 825 827 828 829 831 832 833 834 835 836 837 838 839 840 841 843 844 845 846 847 849 849 850 851 851 851 852 852 852 852 852 853 853 853 853 853 853 853 853 853 852 852 851 851 850 850 851 851 851 850 850 851 852 852 851 850 850 850 849 849 848 848 848 848 849 849 849 849 849 849 849 850 850 851 852 852 852 852 853 853 853 854
823 824 825 826 827 828 830 831 832 834 835 836 837 838 839 840 842 843 844 845 846 847 848 850 850 851 851 852 852 852 852 853 853 853 853 853 853 853 853 853 853 853 853 852 852 851 851 850 850 850 850 850 849 849 850 851 850 849 848 848 850 849 849 849 848 848 848 848 849 848 848 849 849 849 850 850 851 852 853 853 853 853 854 854 854
823 825 825 827 828 829 830 832 833 834 835 836 838 839 840 841 843 844 845 846 847 848 849 850 851 851 852 852 852 852 853 853 853 853 853 853 853 854 853 853 853 853 853 853 852 852 851 850 850 849 849 849 848 848 849 849 847 847 848 848 849 848 849 850 849 848 848 848 848 848 848 848 849 850 850 851 851 852 853 853 854 854 854 854 855
824 825 827 828 828 830 831 832 834 835 836 837 838 839 841 842 843 845 846 847 848 849 850 851 851 852 853 853 853 853 853 853 853 853 853 854 854 854 854 854 854 854 854 853 853 852 851 850 849 849 849 848 848 847 848 848 846 847 848 848 848 847 847 849 849 848 848 847 847 847 848 848 849 850 850 851 851 852 852 853 854 854 854 855 855
825 826 827 829 829 831 832 833 834 835 837 837 839 840 841 843 844 845 846 847 848 850 850 851 852 852 853 853 853 853 853 854 853 853 853 854 854 854 855 854 854 854 854 854 853 853 852 851 850 849 848 848 848 847 848 849 847 847 848 849 848 847 847 849 849 849 848 847 847 846 847 848 849 850 850 850 851 852 852 853 853 854 854 855 855
824 826 828 829 830 831 832 834 834 835 837 838 839 840 842 843 844 845 846 847 848 850 851 851 852 852 853 853 853 854 854 854 853 853 853 854 854 855 854 854 854 854 854 853 853 853 852 851 850 849 849 848 848 848 848 849 848 848 848 848 848 847 848 849 849 848 848 847 847 847 847 848 849 849 850 850 851 852 852 852 853 854 854 855 855
824 825 827 829 830 832 833 834 835 836 837 838 840 840 842 842 844 845 846 847 848 850 851 851 852 852 853 853 854 854 854 854 853 853 853 854 854 854 854 854 854 854 853 853 853 852 852 851 850 850 849 849 848 848 848 848 849 848 848 848 848 848 848 849 848 848 847 847 847 847 847 848 848 849 850 851 851 851 852 853 853 854 855 855 856
823 825 827 829 831 832 833 834 835 837 838 839 840 841 842 843 844 845 846 847 848 849 850 851 852 852 853 853 854 854 854 854 854 854 853 853 853 854 854 853 853 853 853 853 852 852 851 851 850 850 849 849 849 848 848 848 848 848 848 848 848 848 848 848 847 847 846 846 846 846 846 847 848 848 849 850 851 852 852 853 853 854 855 855 856
822 825 827 829 830 832 833 834 835 836 838 839 840 841 842 843 844 845 847 847 849 849 850 851 851 852 853 853 854 854 854 854 854 854 853 853 853 853 853 853 853 853 852 852 852 852 851 851 850 850 850 849 849 848 848 848 847 847 847 847 847 847 847 846 846 846 845 845 845 845 845 845 846 847 849 850 851 852 853 853 853 854 855 855 856
822 825 826 828 829 831 832 833 835 836 837 838 839 841 842 843 844 845 847 848 849 849 850 850 851 851 852 853 853 853 854 854 853 853 853 853 853 853 853 853 853 852 852 852 852 851 851 850 850 850 849 849 849 848 848 848 847 847 847 846 846 845 845 845 845 845 844 844 844 844 844 844 845 846 848 849 851 852 853 853 853 854 854 855 856
821 823 825 827 828 830 831 832 834 835 837 838 839 840 841 843 844 845 846 847 848 849 849 849 850 851 851 852 852 852 853 853 853 852 852 852 852 852 852 852 852 852 852 852 851 851 850 850 850 849 849 849 849 849 848 848 847 847 846 846 845 844 844 844 843 843 843 843 843 843 843 843 844 845 846 848 850 851 852 853 854 854 854 854 855
819 821 824 825 827 828 830 831 833 834 836 837 838 839 840 841 843 844 845 846 847 847 848 848 849 850 850 851 851 851 852 852 852 851 852 852 852 852 852 852 852 852 852 852 851 850 850 849 849 849 849 849 849 848 848 847 847 846 846 845 844 844 843 842 842 842 843 843 843 843 843 843 844 844 845 846 848 849 850 852 853 853 854 854 854
817 819 822 824 826 827 828 830 831 833 834 835 837 838 839 840 841 843 844 845 846 846 847 847 848 849 849 849 850 850 850 851 851 850 851 851 851 851 851 851 851 852 851 851 851 851 850 849 849 849 849 849 848 848 847 847 846 846 845 844 844 843 842 842 842 842 842 842 842 842 842 843 844 844 844 845 846 847 847 848 850 851 852 852 853
816 818 821 823 824 826 827 829 830 832 833 834 835 837 838 839 840 841 843 844 844 845 846 846 847 847 847 848 849 849 849 849 849 850 850 850 850 850 850 851 851 851 851 851 851 851 850 850 849 849 849 848 848 848 847 846 846 845 844 844 843 842 842 842 841 841 841 842 842 842 843 843 843 844 844 844 844 844 844 845 846 847 848 850 851
816 818 820 822 824 826 827 828 830 831 832 833 834 836 837 838 839 840 842 842 843 844 844 845 845 846 846 846 847 847 848 848 848 849 849 849 849 849 849 850 850 851 851 851 851 851 850 850 850 849 849 848 848 847 846 846 845 845 844 843 843 842 842 841 841 840 841 841 841 842 842 842 842 843 843 842 842 842 842 843 844 845 846 847 849
815 817 819 821 823 825 826 827 829 830 831 832 834 835 836 837 838 839 840 841 842 843 843 844 844 844 845 845 845 845 846 846 847 847 847 848 848 848 849 849 849 850 850 850 850 850 850 849 849 848 848 847 847 847 846 845 845 844 844 843 842 842 841 841 840 840 840 840 840 841 841 842 842 842 842 841 840 839 840 842 843 844 845 847 848
814 816 818 820 822 823 825 826 828 829 830 831 832 833 834 836 837 838 839 840 841 841 842 842 842 843 843 843 844 844 845 845 846 847 847 847 848 848 848 848 849 849 849 849 849 849 848 848 848 848 848 847 847 846 846 846 845 844 844 843 842 842 841 840 840 840 840 840 840 840 840 841 841 841 841 840 840 839 839 840 841 842 843 845 847
813 815 817 818 820 822 823 825 826 827 828 830 831 832 833 834 836 837 838 839 839 840 840 841 841 842 842 843 843 844 844 845 845 846 846 847 847 847 847 847 848 848 848 848 848 848 847 847 847 847 847 847 846 846 845 845 844 844 843 843 842 842 841 840 840 839 839 839 839 839 840 840 840 840 840 840 839 839 839 839 840 841 842 843 844
812 814 815 817 819 820 822 823 824 826 827 828 830 831 832 833 835 836 836 837 837 838 838 839 840 840 841 842 842 843 843 843 844 845 845 845 846 846 846 847 847 847 847 847 847 847 847 847 846 846 846 846 846 845 845 844 843 843 842 842 842 841 840 840 839 839 839 838 838 838 838 839 839 839 838 839 839 838 838 838 838 839 840 841 842
811 812 814 816 818 819 821 822 823 825 826 827 829 830 831 832 834 835 835 836 836 837 837 838 839 839 840 841 841 841 841 841 842 843 843 843 844 844 845 845 846 846 846 846 846 846 846 846 846 845 845 845 844 844 844 843 842 842 841 841 841 840 840 839 839 838 838 838 837 837 837 837 837 837 837 837 837 837 837 837 837 837 838 839 840
810 812 813 815 817 818 820 821 822 824 825 826 828 829 830 831 833 834 835 835 835 835 836 837 837 838 838 839 839 839 839 839 840 841 842 842 843 843 844 844 845 844 844 844 844 844 845 845 845 845 844 843 843 843 842 842 842 841 840 840 840 839 839 839 838 838 837 837 837 836 836 836 836 835 835 835 835 835 835 835 835 836 836 837 837
809 810 812 814 815 817 818 820 821 822 824 825 826 828 829 831 832 833 834 834 833 833 835 836 835 836 837 837 837 838 838 838 839 840 841 841 842 843 843 843 843 843 843 842 842 843 844 844 844 844 844 843 842 842 841 841 841 841 840 839 839 838 838 838 838 837 837 836 836 836 835 835 834 834 833 833 833 833 833 833 833 833 834 834 835
807 809 811 813 814 816 817 818 820 821 823 824 825 827 828 830 830 831 832 832 832 832 833 834 834 835 836 836 836 837 837 838 838 839 840 840 841 842 843 842 842 842 842 842 842 842 843 843 843 843 843 842 841 841 841 840 840 840 839 838 838 838 838 838 838 837 836 836 836 836 835 834 834 833 833 832 832 832 832 832 831 831 832 832 833
805 807 809 811 813 815 816 817 818 820 821 823 824 826 827 828 829 830 831 831 831 831 832 832 833 834 834 835 835 835 836 836 837 838 839 839 840 841 841 841 841 841 841 841 841 842 842 842 843 842 842 842 841 841 841 840 840 840 839 838 837 837 837 838 837 837 836 836 836 836 835 834 834 833 833 832 832 831 831 830 829 829 829 830 831
804 806 808 809 811 813 814 815 817 818 819 821 823 824 826 827 828 829 829 830 830 831 831 831 832 832 833 833 833 834 834 835 836 837 838 838 839 840 840 840 840 841 841 841 841 841 841 842 842 842 841 841 840 840 840 840 840 839 838 837 836 837 837 837 837 836 836 836 836 836 835 834 833 833 832 832 831 831 830 829 829 828 828 828 829
802 804 805 807 809 811 813 814 815 817 818 820 821 823 824 825 826 827 828 829 829 830 830 830 830 831 831 832 832 832 833 834 834 835 836 837 838 839 839 839 839 840 840 840 841 841 841 841 841 841 841 841 840 839 840 839 839 839 839 838 837 836 837 837 837 836 836 836 836 835 835 834 833 832 832 831 830 830 829 829 828 828 828 827 828
800 802 803 805 808 809 811 812 814 815 816 819 820 821 823 824 826 827 827 828 828 829 829 829 830 830 830 830 831 831 832 833 833 834 835 836 837 838 838 838 838 838 839 839 840 840 840 841 841 841 840 840 840 839 839 839 839 839 839 840 839 839 838 837 836 836 836 835 835 835 834 834 833 833 832 831 830 829 829 828 827 827 827 827 827
798 800 802 804 805 807 808 810 811 813 815 817 819 820 822 824 825 826 827 827 827 828 828 829 829 829 829 829 830 830 831 831 832 833 834 835 835 836 836 837 837 838 838 838 839 839 840 840 840 840 839 840 839 839 838 838 838 839 839 840 841 842 842 839 837 836 836 835 834 834 834 833 833 832 831 831 830 829 828 827 827 826 826 825 825
796 797 799 801 803 804 806 808 809 810 813 815 816 818 820 822 823 825 826 826 826 827 827 827 827 828 828 828 829 829 830 830 831 832 833 834 834 835 835 836 836 837 837 837 838 838 838 839 839 838 838 839 839 838 838 838 838 838 838 839 840 842 842 840 838 836 835 835 834 834 834 833 833 832 831 830 830 829 828 827 827 826 825 825 825
792 794 796 798 800 802 804 805 807 808 811 812 814 816 817 819 820 822 823 823 824 824 824 825 825 826 826 826 827 828 829 829 830 831 832 832 833 833 834 835 836 836 836 837 837 837 837 837 837 837 837 838 838 838 838 838 837 837 837 838 838 840 839 839 839 838 836 835 834 834 834 833 833 832 831 830 830 829 828 827 827 826 825 825 824
789 791 794 796 798 800 802 803 804 806 808 810 812 813 815 816 817 819 820 820 821 821 822 823 823 824 825 825 826 826 827 828 829 830 831 832 832 833 834 834 835 835 835 836 836 836 837 836 837 836 836 836 837 837 837 836 836 836 837 837 837 837 838 838 839 839 838 836 834 833 833 833 833 832 831 831 830 829 828 827 827 826 825 825 824
787 790 792 794 796 798 800 801 803 804 806 808 810 811 812 814 815 816 817 818 818 819 820 821 822 823 824 824 825 825 826 827 828 829 830 831 832 832 833 833 834 834 835 835 835 835 836 836 836 836 835 835 835 836 836 836 836 836 836 837 837 837 837 838 838 838 839 839 836 833 833 832 832 832 831 831 830 829 828 827 827 826 825 824 824
785 788 789 792 794 796 798 799 800 802 804 806 807 809 810 811 813 814 815 816 817 818 819 820 820 821 822 823 823 824 825 826 828 829 830 831 831 832 832 833 833 834 834 834 834 834 834 834 834 834 834 834 834 834 835 835 835 835 836 836 836 837 837 838 838 838 838 839 838 835 833 832 832 832 832 831 830 829 828 827 826 826 825 824 823
783 785 787 789 791 793 795 796 798 799 801 803 805 806 808 809 811 812 813 814 815 816 818 818 819 820 821 821 822 823 824 826 827 828 829 830 831 832 832 832 833 833 833 833 833 833 833 833 833 833 833 833 834 834 834 834 834 835 835 836 836 836 837 837 837 838 838 838 838 836 835 833 832 831 831 831 830 830 829 828 827 826 825 824 823
781 783 785 787 789 791 792 794 795 797 798 800 802 803 805 806 807 809 810 811 812 814 815 816 817 818 819 820 821 823 824 825 826 828 829 830 830 831 831 832 832 832 832 832 832 832 832 832 832 832 833 833 833 833 833 834 834 834 835 835 835 835 836 836 836 836 837 837 837 836 834 833 832 831 830 830 830 829 829 828 827 826 825 824 823
Wind_Speed
7 10 14 14 18 21 21 24 26 25 25 28 29 28 25 20 21 23 23 22 22 22 23 24 24 26 27 26 24 22 21 19 18 17 16 15 14 14 12 12 11 10 10 9 9 8 8 8 8 8 7 7 8 7 7 7 7 7 6 5 5 5 5 4 3 4 6 6 7 7 6 7 7 6 7 7 7 7 7 8 7 8 8 8 8
10 13 14 15 19 21 22 24 25 25 25 27 27 27 24 21 22 22 21 21 21 21 22 23 24 25 25 24 22 21 20 19 17 16 15 14 14 13 12 12 11 10 10 9 9 8 8 8 8 7 7 7 7 7 8 8 8 8 7 6 5 4 5 4 3 3 4 5 5 6 5 6 6 6 6 6 6 6 7 7 7 8 8 8 8
14 16 15 16 20 21 22 23 24 25 25 26 26 26 24 23 22 23 22 21 21 21 22 23 24 24 23 22 21 20 19 17 17 16 15 15 14 13 13 12 11 10 10 9 8 8 7 7 7 7 7 7 7 7 8 8 9 9 8 7 5 4 4 3 2 2 3 3 4 5 5 5 6 5 5 5 5 6 6 7 7 7 7 7 7
16 18 17 17 20 22 22 23 24 24 25 25 26 25 24 23 22 23 23 21 21 21 22 23 23 23 21 20 20 19 18 17 16 16 16 15 14 13 13 12 11 11 10 9 8 8 7 7 7 6 6 6 5 6 7 8 9 9 9 8 6 4 3 3 2 2 2 1 3 4 4 5 5 4 3 4 5 5 6 6 7 7 7 7 8
17 19 19 19 21 22 22 22 23 24 24 24 25 24 23 22 22 23 23 22 22 21 21 22 22 22 20 19 19 18 17 17 16 16 15 15 14 13 12 11 11 10 10 9 8 7 6 6 5 5 5 4 4 5 6 8 9 8 8 8 7 5 3 2 1 1 1 1 3 3 4 4 5 4 3 3 5 5 6 6 7 7 8 7 8
19 20 20 21 22 22 22 22 22 22 23 22 22 22 21 22 23 23 23 22 21 21 22 22 22 20 19 19 19 18 18 17 16 16 15 15 14 13 12 11 10 10 9 8 7 6 5 4 4 4 4 4 4 6 6 8 9 8 8 8 7 6 3 1 1 2 2 2 2 3 3 3 4 4 3 4 4 5 6 7 7 7 7 7 8
20 20 20 22 23 22 21 21 21 21 21 22 22 22 21 21 24 24 23 22 20 21 20 20 20 19 19 19 19 18 18 17 16 16 15 15 14 13 12 10 9 8 8 7 5 4 4 3 4 4 4 5 6 6 6 7 8 9 9 8 7 6 4 2 1 3 4 3 3 3 2 2 2 3 4 4 5 5 6 7 8 7 7 7 9
20 20 21 23 23 23 21 20 21 21 21 22 22 22 21 22 24 24 22 21 20 19 19 19 19 18 18 18 18 18 18 17 16 15 15 14 13 12 10 9 7 6 6 6 5 3 3 3 3 4 5 6 6 6 5 4 6 7 7 7 7 6 5 4 2 4 5 5 5 4 3 3 2 3 4 4 5 5 6 7 8 8 8 8 9
21 19 21 22 23 24 22 20 20 20 21 21 21 22 22 22 23 23 21 20 19 18 18 18 18 18 17 17 17 17 17 16 15 14 13 12 11 9 8 6 5 5 4 4 4 2 2 2 2 3 5 6 6 5 5 4 4 5 5 6 7 6 6 6 4 4 5 6 7 5 4 3 3 4 4 4 5 5 6 8 9 8 8 8 9
22 20 20 21 23 22 21 20 19 20 22 21 21 22 22 22 22 21 21 19 18 18 18 18 17 17 17 16 16 16 15 14 13 12 11 9 8 7 6 5 4 3 3 3 2 1 0 1 2 3 4 5 5 5 6 6 6 6 6 6 7 7 7 6 5 4 4 6 7 7 5 4 4 4 5 5 5 5 6 7 9 9 8 9 10
23 23 20 20 21 20 20 20 19 20 22 21 21 21 22 22 22 21 20 19 18 18 18 17 17 17 16 15 14 14 13 12 11 10 8 7 6 5 4 4 3 2 2 1 0 1 2 3 3 4 5 5 4 6 7 7 7 7 8 8 8 7 7 6 5 5 3 5 7 8 7 5 5 4 6 6 5 5 6 8 9 9 9 9 10
23 24 23 21 21 20 20 20 20 21 21 21 21 21 21 21 21 21 20 19 18 17 17 17 16 15 14 14 13 12 11 10 9 8 6 6 5 4 4 4 3 2 1 1 2 3 4 5 4 4 4 4 4 6 6 8 8 7 8 8 8 7 7 6 5 6 5 4 5 8 8 7 6 5 5 6 5 5 7 8 9 10 10 9 9
23 24 24 22 21 21 21 20 21 21 21 21 21 22 21 20 19 19 19 18 18 17 17 16 15 14 13 13 12 12 11 9 8 7 6 6 5 5 5 4 3 3 2 3 4 5 6 6 5 4 4 4 5 6 6 7 8 7 7 8 8 7 7 7 5 6 8 5 5 7 8 8 6 6 6 5 5 5 7 9 10 10 11 10 10
24 23 23 21 20 20 19 19 19 20 21 21 21 21 20 20 19 18 18 18 18 17 16 15 14 14 13 12 11 11 10 9 8 7 7 6 6 6 6 4 3 3 4 4 5 6 7 6 5 5 5 5 6 7 7 7 7 7 7 7 9 9 8 8 7 6 7 7 4 7 8 8 7 7 6 6 5 6 7 8 10 11 11 10 10
24 24 22 21 19 19 18 18 19 20 21 21 20 20 20 19 19 18 17 17 17 16 16 15 15 14 13 12 11 11 10 9 9 8 8 8 7 6 5 4 4 4 5 6 6 7 7 7 7 7 7 8 8 8 9 8 8 8 8 8 9 9 8 8 8 7 6 6 5 5 8 8 8 8 7 7 6 6 7 8 10 11 12 11 11
23 23 22 21 19 19 19 18 19 20 20 20 19 19 18 18 18 17 17 16 16 16 16 15 15 14 13 12 11 11 10 10 9 9 9 8 7 6 5 4 4 5 6 6 7 7 8 8 8 9 9 10 10 10 9 9 9 9 9 9 8 9 8 8 7 6 6 6 7 5 7 7 8 9 8 7 7 7 7 9 10 11 12 12 11
22 22 21 20 19 18 18 17 17 18 18 18 17 17 17 16 16 16 16 16 16 17 16 15 15 14 13 12 11 10 10 10 9 9 8 8 7 6 5 5 5 6 7 7 8 8 9 10 10 11 11 12 12 11 10 9 10 10 11 10 9 10 10 8 6 6 6 5 7 7 6 7 7 8 8 8 8 8 8 8 9 11 12 12 12
21 21 20 20 19 18 18 17 16 16 16 15 15 15 14 15 15 15 15 16 17 16 16 15 14 13 12 11 10 9 9 9 9 8 8 8 7 7 7 6 7 7 7 8 9 10 11 11 12 12 13 13 13 12 10 9 9 9 10 10 9 9 10 10 8 7 7 6 6 6 6 7 7 7 8 9 8 9 9 9 9 11 12 12 12
21 20 20 19 19 19 18 17 16 16 16 14 14 13 13 14 14 15 15 15 16 15 15 14 14 13 11 10 9 9 9 9 9 9 8 8 8 8 8 7 8 8 9 9 10 11 12 13 13 13 14 13 13 13 10 8 8 7 8 9 7 5 7 10 11 9 8 7 6 5 5 8 8 7 8 10 9 10 10 10 10 10 12 12 12
20 20 20 19 19 19 18 17 17 16 16 15 14 14 13 13 14 13 13 14 14 14 14 13 13 11 10 9 9 9 9 9 9 9 8 8 9 9 8 8 9 10 11 11 12 13 13 13 13 13 13 13 13 13 10 8 8 8 6 6 6 5 5 9 11 11 10 8 7 6 5 7 10 9 9 11 11 11 11 10 10 11 12 12 12
19 19 19 20 19 20 19 18 17 17 16 15 15 14 13 13 13 13 13 13 13 13 13 13 12 11 10 9 9 9 10 10 10 9 9 9 10 9 9 10 10 11 11 12 13 14 13 13 12 12 12 11 11 11 9 8 8 9 7 6 7 7 6 8 10 10 10 8 8 7 7 6 11 11 10 11 12 12 12 12 12 12 12 12 13
19 19 19 20 20 20 20 19 19 18 17 16 16 15 14 14 14 14 14 14 13 13 13 12 11 11 10 10 10 11 10 10 10 10 10 10 10 10 11 11 11 11 12 12 13 13 12 11 11 10 10 10 10 11 10 9 8 8 9 8 8 7 7 7 8 9 9 8 8 8 8 7 10 13 12 12 13 13 13 13 12 13 13 13 13
20 20 21 21 21 21 20 20 20 19 18 17 17 16 16 15 15 14 14 14 14 14 13 12 12 11 11 11 11 11 11 10 10 10 10 10 11 12 12 11 12 12 13 13 13 12 11 10 10 10 9 10 11 12 11 10 8 8 8 8 8 7 7 7 8 9 9 9 8 8 8 8 8 13 14 13 14 14 14 14 13 14 13 13 13
23 22 22 21 21 22 21 21 21 20 19 18 18 17 16 16 16 15 15 15 15 15 14 13 13 12 12 12 12 11 11 11 11 12 12 12 12 12 12 12 12 13 14 13 12 12 11 11 10 10 9 9 10 10 10 9 8 8 8 8 7 7 7 8 8 9 9 9 9 8 8 9 8 11 14 15 15 15 15 15 14 14 14 14 14
24 22 21 22 22 23 22 22 21 21 20 19 18 17 17 16 16 16 15 15 15 16 15 14 14 13 13 13 13 12 11 12 13 13 13 12 12 12 12 12 12 12 12 12 12 12 11 11 10 10 9 8 8 9 9 9 8 8 8 8 8 8 8 8 8 9 9 9 9 8 9 9 9 10 14 17 17 16 16 16 15 15 14 14 14
22 21 21 22 23 23 23 23 22 21 20 19 18 18 17 17 16 17 16 16 15 16 16 15 15 15 14 14 14 13 13 13 13 13 13 13 12 12 12 12 11 11 12 12 13 12 11 11 11 10 10 7 6 8 9 9 9 9 9 10 10 11 11 10 9 9 9 9 10 9 9 9 10 10 12 16 18 18 16 16 16 15 15 15 15
21 22 22 22 23 24 24 23 23 22 21 19 18 17 17 17 17 17 17 16 16 16 16 16 16 15 15 15 15 15 15 14 13 13 13 13 12 11 12 12 11 11 12 12 12 12 12 12 11 11 10 7 5 8 9 10 10 9 9 9 10 10 10 10 9 9 10 10 10 10 10 10 10 10 12 15 18 19 17 16 16 16 16 16 16
23 23 24 24 24 25 25 24 24 23 22 21 18 18 18 17 18 19 18 16 16 16 17 17 16 16 16 16 16 16 15 14 14 13 13 13 12 11 11 12 12 12 12 12 11 11 12 12 11 10 9 7 7 10 11 12 11 10 10 9 8 8 9 10 10 10 10 9 9 9 10 10 10 10 12 13 15 19 18 17 18 17 17 17 17
26 25 25 26 26 26 26 26 25 25 24 23 21 19 19 18 19 20 19 17 16 17 17 17 17 17 16 16 16 16 15 15 14 12 12 12 11 12 12 13 14 14 13 12 11 11 12 11 10 10 8 9 10 12 14 14 12 11 10 9 8 8 9 10 11 11 9 7 7 7 7 9 9 9 11 12 13 16 19 19 19 18 18 18 18
28 26 25 27 27 26 26 26 26 25 24 24 23 20 20 20 20 20 20 18 18 17 17 17 17 17 16 16 16 15 14 14 14 12 12 12 11 12 13 14 15 15 14 13 12 13 12 11 11 11 10 11 12 14 16 15 12 11 10 9 9 9 9 9 10 10 9 7 6 6 6 7 8 8 9 11 12 14 18 21 20 19 20 20 19
27 25 26 26 26 25 25 25 25 24 24 24 23 20 20 21 20 20 20 19 19 18 18 18 17 17 16 16 17 16 15 15 14 13 13 12 12 13 13 14 15 15 15 14 14 14 12 11 12 12 12 14 14 16 17 16 13 11 10 9 9 8 9 9 9 8 8 7 7 7 6 7 8 8 8 10 14 15 16 18 21 21 21 21 21
25 26 27 26 25 25 24 24 24 23 23 23 23 21 20 20 20 20 20 20 20 20 19 19 19 18 17 17 17 17 17 17 17 16 14 13 13 13 13 14 14 15 15 15 15 14 12 12 12 12 13 15 16 17 16 15 12 11 10 9 8 8 9 9 9 8 7 7 7 8 8 8 9 8 8 8 13 17 17 16 19 21 22 22 21
24 26 26 26 26 26 25 24 24 24 24 24 24 23 21 20 20 20 20 20 20 20 20 19 20 20 19 18 18 18 18 19 18 17 16 15 14 14 14 14 14 14 15 15 15 14 13 12 12 12 13 14 15 14 13 11 10 9 8 8 8 9 10 10 10 10 10 9 9 10 10 10 10 9 8 7 9 14 17 17 18 21 23 24 23
24 24 26 27 27 27 26 25 25 25 25 24 24 22 21 20 20 20 20 21 21 21 21 20 20 20 19 19 19 19 19 19 19 18 17 16 16 15 15 14 14 14 14 14 13 13 12 11 11 11 11 12 11 10 10 10 10 9 8 8 8 10 11 11 12 12 12 12 12 12 11 11 11 10 9 9 8 9 13 15 17 20 23 25 25
25 25 27 28 28 28 27 26 26 26 26 24 23 22 20 20 20 20 20 22 22 22 21 21 20 19 19 20 19 19 19 20 19 19 18 17 16 16 15 14 13 13 12 11 11 11 10 9 10 10 10 9 8 8 9 10 10 9 9 9 10 10 11 11 12 13 13 13 13 12 12 12 12 11 11 10 9 8 9 11 13 17 21 24 26
27 27 28 28 28 28 28 27 27 27 26 26 24 22 21 21 21 21 21 22 22 22 21 21 20 18 19 20 20 20 21 21 20 19 19 18 17 16 13 12 12 11 10 10 9 9 8 8 8 8 9 9 9 8 8 9 9 10 11 11 11 10 10 11 12 12 12 12 12 12 11 11 10 9 10 10 9 8 8 8 10 12 16 19 24
28 28 28 28 28 29 28 28 28 27 26 26 25 23 22 22 21 22 23 23 24 22 20 21 21 20 19 19 19 20 22 22 20 19 20 19 17 14 11 10 10 10 9 9 8 7 7 7 6 6 8 10 11 11 10 10 11 12 13 11 11 10 11 12 11 11 11 11 11 11 10 9 8 6 5 7 7 7 7 8 9 10 12 14 17
29 29 29 29 29 29 29 29 29 27 26 26 25 24 23 23 22 22 23 24 24 21 19 20 21 19 18 18 17 18 20 21 19 19 18 17 15 13 10 9 9 8 8 8 8 7 7 7 6 6 8 10 12 12 12 13 13 14 14 12 11 10 11 10 10 10 10 11 12 12 12 11 9 7 4 3 4 4 5 6 7 9 10 11 13
29 29 30 29 29 28 28 28 28 27 27 27 26 25 24 23 24 23 21 20 19 16 16 18 17 16 17 16 16 17 18 18 18 17 15 14 13 11 9 8 7 6 7 8 8 8 7 7 7 8 9 10 11 12 12 13 13 14 14 13 10 10 8 8 10 11 10 12 13 13 13 13 11 10 8 7 6 5 4 5 6 8 9 10 11
29 29 29 29 29 28 28 28 28 28 27 27 26 25 24 23 23 20 17 17 15 13 14 15 13 13 14 14 15 15 15 15 15 14 12 11 11 10 7 6 5 5 6 7 8 8 8 8 10 10 10 11 11 10 10 11 12 13 14 13 10 8 6 8 12 12 12 12 13 13 13 12 12 12 11 10 9 7 6 5 5 6 8 9 11
28 28 28 29 29 29 29 29 28 28 28 27 26 25 24 22 20 19 17 16 15 14 14 14 13 11 12 13 13 12 13 12 12 11 10 10 10 8 6 4 4 5 6 6 7 7 8 9 10 10 10 11 10 9 9 10 9 9 11 13 10 6 6 9 13 11 11 12 12 13 13 12 12 12 11 11 10 9 8 7 6 5 5 6 7
27 28 29 29 30 29 29 29 29 29 29 28 26 26 26 24 22 21 20 18 16 16 15 15 14 12 10 10 10 10 12 11 10 10 10 10 10 9 5 4 5 5 5 5 6 5 6 6 6 8 9 9 9 9 7 6 5 5 7 9 9 7 7 8 12 10 10 11 11 12 13 13 13 14 12 11 11 10 8 7 7 6 5 4 4
28 29 30 30 30 30 30 30 29 30 29 28 27 27 26 25 23 21 20 18 17 16 15 14 13 12 10 10 11 10 10 10 10 10 12 13 11 8 7 6 5 5 5 5 4 3 3 3 5 7 7 7 8 7 5 3 3 5 5 3 4 4 3 5 9 9 8 9 11 13 14 14 13 15 14 13 12 10 8 7 7 6 6 5 4
28 29 29 30 30 31 32 31 31 31 30 29 29 28 26 24 23 20 18 17 16 15 15 14 13 12 11 12 11 10 11 12 13 14 14 14 11 10 8 6 5 6 6 5 4 4 3 4 4 5 5 4 4 4 4 3 2 2 2 0 1 1 1 3 6 5 6 7 11 14 14 14 14 15 16 15 13 11 9 8 7 7 6 6 6
28 29 31 31 32 33 33 33 33 31 30 30 29 28 26 24 22 18 15 15 14 14 15 16 15 13 13 13 13 13 13 15 16 16 15 14 13 10 8 7 7 7 7 6 5 5 4 3 3 3 3 3 2 2 2 3 2 1 1 1 1 1 1 2 4 3 4 5 9 13 14 14 14 16 17 17 15 13 11 9 8 7 7 6 6
29 32 33 33 34 34 34 34 33 32 31 30 28 28 27 25 23 21 18 16 15 15 16 17 16 16 14 14 15 15 16 16 17 16 15 14 12 10 9 8 9 8 7 5 4 3 2 2 2 2 1 1 1 2 3 4 1 3 3 3 2 1 2 1 1 1 4 4 6 11 12 13 14 16 18 17 16 15 13 12 10 9 8 8 7
31 32 32 33 34 34 34 34 33 32 31 30 29 29 28 27 26 24 23 21 19 18 17 15 15 15 14 13 14 16 17 17 17 16 15 13 12 11 10 9 8 7 6 5 4 4 3 3 2 2 0 1 1 1 3 4 1 4 3 3 3 3 2 1 1 0 2 2 5 9 10 11 12 14 16 16 16 15 15 14 13 12 10 9 9
31 31 31 33 34 34 34 34 33 32 31 30 30 29 29 28 27 26 25 24 21 19 16 15 14 13 13 14 15 16 18 18 16 15 15 14 13 12 11 10 9 8 7 7 6 5 5 4 3 2 1 2 1 1 1 1 2 4 4 5 4 4 4 3 2 2 2 1 4 6 8 9 9 11 14 14 14 14 14 14 14 15 13 12 12
30 30 32 33 34 35 35 34 33 32 32 31 30 30 30 29 28 27 26 24 22 19 17 17 16 14 15 16 16 17 18 17 16 16 15 14 14 13 12 11 9 9 9 8 7 7 6 6 4 3 2 2 2 2 2 2 4 5 5 5 5 5 6 4 2 2 3 1 2 2 6 10 8 8 11 12 12 12 11 12 13 14 14 14 14
30 31 32 33 33 34 34 34 33 33 32 32 31 31 30 29 29 28 27 25 23 20 17 18 18 17 18 18 17 18 17 17 16 15 15 14 14 13 12 10 9 9 9 8 7 7 7 6 5 4 3 2 2 1 1 2 4 5 6 6 6 7 6 4 3 3 2 2 3 3 6 6 6 8 10 12 11 10 9 9 11 12 12 13 14
30 31 31 32 33 34 34 34 34 33 33 33 32 31 31 30 30 29 28 27 24 21 20 21 20 20 20 20 19 19 18 17 16 15 14 14 14 13 11 9 8 8 8 7 7 7 6 6 5 4 4 2 1 1 1 2 4 5 6 6 7 7 7 6 6 6 4 4 4 4 5 6 7 7 10 13 11 9 8 7 9 10 11 12 13
Wind_Direction
122 142 136 137 147 147 145 145 145 149 146 144 145 144 142 141 140 137 139 140 139 138 139 141 141 142 145 146 143 141 137 136 135 134 134 136 137 137 136 134 130 126 125 125 124 125 123 120 111 102 93 82 73 64 58 59 60 64 66 76 89 85 75 62 70 92 96 93 85 82 76 76 82 84 86 85 91 94 89 90 94 102 106 108 113
135 140 131 138 145 146 147 147 149 154 150 147 147 147 146 146 145 143 145 144 142 142 142 142 143 143 144 144 143 141 137 137 138 137 138 140 140 140 140 137 134 131 131 132 133 131 126 117 107 97 85 74 68 60 52 51 52 51 50 63 85 92 84 77 75 85 94 96 91 90 88 80 77 80 82 85 92 92 88 87 95 108 111 115 118
139 138 131 141 145 147 151 152 153 155 151 151 150 149 148 148 149 148 150 147 144 145 144 144 143 144 144 144 144 143 141 141 142 142 143 143 143 144 143 142 141 140 140 142 143 140 131 119 106 94 85 76 68 59 48 44 44 42 40 45 62 98 93 87 106 105 93 91 98 97 94 91 84 80 79 85 91 91 88 90 102 111 114 119 121
137 134 134 143 147 150 154 156 155 154 153 154 153 151 149 149 151 151 152 149 145 144 144 144 144 144 145 146 145 145 144 145 145 146 146 146 147 148 148 148 148 146 146 150 152 149 139 123 111 100 92 86 74 57 43 39 40 37 35 36 42 83 100 83 107 136 133 114 116 112 102 101 95 88 82 87 98 98 91 95 109 114 116 118 122
132 133 137 146 149 152 155 157 156 155 155 155 155 153 150 150 150 152 152 149 145 143 143 143 144 145 146 147 147 148 149 149 150 149 149 150 151 151 154 155 153 151 151 154 155 152 142 128 118 111 98 91 76 53 39 36 40 32 30 38 39 58 92 92 112 184 193 168 136 130 119 115 104 104 108 101 112 110 100 106 112 117 119 116 121
132 136 142 149 150 151 155 156 156 157 157 156 156 154 152 151 149 152 151 149 146 144 145 144 144 147 148 149 150 152 153 154 154 153 153 155 155 157 160 160 156 154 155 156 154 149 138 127 115 104 85 68 53 46 41 36 37 29 22 30 35 43 61 93 177 207 214 205 166 146 138 136 114 116 127 117 123 123 112 117 120 121 119 117 126
138 144 147 150 148 150 153 154 156 158 159 156 156 155 154 154 150 152 151 149 148 146 147 146 146 148 150 152 153 154 155 157 157 157 159 160 162 163 165 162 159 156 156 152 146 141 133 120 101 83 65 50 38 41 41 32 29 25 16 14 19 28 33 22 226 212 210 210 197 167 160 161 134 125 137 136 134 132 123 126 129 127 121 122 130
142 150 150 149 146 147 151 153 156 158 159 156 156 156 156 155 151 150 150 149 148 148 149 149 149 150 153 155 156 157 158 159 160 161 163 165 166 167 167 163 161 157 152 145 141 138 128 105 83 73 65 50 35 27 23 16 26 28 16 7 3 5 5 357 328 238 223 220 210 184 184 191 166 141 144 148 143 139 131 132 134 131 127 127 131
143 152 149 147 143 144 148 152 156 158 159 157 155 156 156 155 151 149 150 150 149 150 151 152 152 154 156 158 159 160 161 161 162 165 166 167 166 167 167 162 161 156 147 140 138 133 121 83 62 62 59 49 32 3 345 346 9 26 18 9 3 354 344 344 341 272 237 227 222 203 202 214 193 159 151 156 152 145 137 139 140 137 136 133 135
144 150 147 146 143 143 149 151 155 158 159 157 154 154 154 154 153 152 152 153 153 154 154 155 156 158 159 160 161 162 162 162 165 169 169 167 164 165 162 160 161 156 150 140 132 127 80 30 31 31 32 40 23 335 328 339 348 3 3 9 9 359 345 338 341 311 250 231 226 217 217 225 221 183 162 168 167 153 146 148 146 143 144 141 140
143 146 147 149 146 146 151 151 152 156 158 156 155 154 155 156 156 154 155 156 156 157 158 158 159 160 162 164 164 164 165 164 168 172 171 166 162 159 154 161 166 169 170 151 202 307 328 345 358 3 6 15 357 321 326 336 344 355 350 355 6 6 359 348 349 347 292 246 229 223 227 229 237 215 171 175 179 164 159 154 153 151 149 148 145
141 144 147 150 147 146 150 150 150 152 155 154 155 156 158 159 157 156 157 158 158 160 162 163 164 165 166 166 167 169 170 170 172 172 169 166 160 156 160 172 178 191 221 274 297 309 318 326 337 345 349 346 327 318 325 331 337 346 341 342 350 358 1 354 355 359 340 290 237 226 227 225 234 231 186 182 188 174 172 163 161 160 154 153 152
142 143 145 147 146 146 148 149 150 152 153 154 157 159 162 162 159 157 159 161 162 164 166 168 169 168 166 166 170 173 174 175 173 170 168 168 167 170 177 185 196 217 253 283 298 305 309 314 325 333 333 325 313 311 317 327 330 331 336 336 336 347 353 347 346 355 350 328 250 222 219 220 226 232 206 195 199 186 184 174 170 167 159 160 159
143 143 143 145 145 145 146 149 154 154 155 157 159 161 163 164 162 161 162 163 166 169 170 169 167 165 165 167 171 173 175 174 171 171 171 176 180 184 187 192 209 238 268 288 298 302 306 309 314 320 319 314 308 308 312 320 320 319 326 327 330 338 345 339 334 342 350 342 278 224 216 219 224 230 217 209 210 199 197 184 178 173 165 165 165
144 145 144 145 145 145 147 152 156 156 158 159 159 160 162 163 164 164 166 168 170 173 171 168 167 166 168 169 172 173 174 173 174 177 179 185 189 191 194 208 232 258 279 291 298 302 306 307 309 311 311 309 307 307 311 316 316 318 318 320 325 328 333 329 321 325 340 348 322 250 222 219 220 226 222 216 211 207 208 192 184 179 172 169 169
147 148 148 148 149 148 149 153 155 156 159 159 159 160 162 164 164 166 168 172 175 174 172 170 171 170 169 171 173 175 177 179 181 184 188 192 193 198 210 233 250 269 285 291 298 303 303 304 305 305 306 304 304 304 307 316 322 325 321 320 321 318 321 319 314 319 332 346 338 299 239 223 217 222 223 220 210 211 215 195 187 184 178 176 174
151 152 151 150 151 152 152 153 153 155 158 160 161 161 163 166 167 169 171 175 176 175 174 173 174 173 172 173 176 179 183 187 188 191 196 197 200 210 224 242 256 272 288 295 300 302 301 302 302 301 302 302 304 304 310 323 325 325 320 320 324 320 314 309 312 319 329 343 340 322 266 234 221 223 223 221 212 213 220 201 191 189 185 182 179
155 156 154 153 155 156 156 155 156 157 160 163 163 163 166 169 171 174 176 177 177 177 177 176 176 175 176 178 180 184 188 193 195 198 202 204 211 221 230 242 257 273 285 292 296 299 299 301 302 303 305 306 308 307 316 328 317 312 312 316 326 324 314 304 306 310 321 337 338 327 282 247 230 226 224 223 214 215 222 209 197 195 191 188 184
160 160 159 159 160 160 159 159 162 163 165 167 165 168 171 175 176 177 179 181 182 181 181 181 180 180 181 183 183 185 193 199 201 207 211 213 220 229 239 252 269 280 286 289 294 298 300 303 305 307 310 311 311 310 323 334 320 318 316 318 322 318 310 300 299 300 307 321 328 325 289 254 241 234 226 225 217 215 222 215 204 200 197 193 189
165 165 164 165 164 165 165 165 167 167 170 170 170 173 175 180 180 178 179 182 184 184 184 184 184 184 186 187 187 190 198 205 211 218 220 224 232 240 254 269 280 286 288 290 296 300 303 308 309 312 315 317 318 318 330 342 340 348 344 330 325 321 316 298 294 296 299 308 312 316 306 263 248 244 230 228 222 215 220 218 209 205 201 197 193
172 171 169 169 169 170 171 171 173 173 175 175 175 177 178 182 182 181 181 183 185 185 186 185 186 187 189 193 195 202 209 214 220 225 228 235 244 257 271 279 285 289 291 294 300 304 305 308 310 313 316 320 322 322 333 347 349 348 345 338 332 333 329 302 291 292 296 299 300 306 311 276 251 246 236 232 228 219 220 218 212 208 205 201 198
176 177 176 175 175 176 177 178 180 181 182 180 179 181 182 184 185 186 185 186 187 188 190 188 191 191 194 199 205 214 218 223 229 232 237 245 255 268 276 282 287 290 290 296 304 305 304 303 305 309 313 319 323 327 339 351 351 342 337 335 330 328 321 303 295 294 296 297 297 296 297 285 256 247 239 233 232 225 221 220 216 212 208 206 203
180 182 182 181 182 182 183 185 186 187 188 186 185 185 185 186 188 190 188 188 190 191 193 193 197 199 202 208 214 223 225 229 236 241 246 251 258 266 272 279 283 285 287 293 302 304 303 300 301 306 312 320 325 330 339 346 347 342 337 335 334 329 319 309 303 301 301 299 297 294 288 284 266 252 244 236 234 230 224 223 222 218 213 211 209
184 185 185 186 187 187 188 190 190 190 191 190 191 191 189 188 190 193 193 193 194 194 196 198 203 206 211 216 221 227 230 234 241 247 252 254 257 263 269 276 280 284 287 291 298 302 301 300 300 303 308 316 322 327 332 336 342 343 338 336 335 333 327 318 312 307 307 305 300 297 287 280 269 257 249 240 235 233 229 226 224 223 220 217 216
188 187 188 189 191 191 193 194 193 192 193 194 195 196 195 193 194 196 198 200 201 200 201 205 208 212 216 220 226 231 233 238 244 250 256 258 260 266 271 278 283 285 287 291 300 302 298 296 298 299 302 310 322 329 330 331 333 334 331 329 325 323 324 323 318 314 310 309 305 299 291 280 268 258 253 246 238 236 234 229 226 227 226 224 222
191 192 191 191 194 196 197 197 197 196 196 198 199 200 201 200 201 202 203 205 209 210 210 213 215 219 221 223 229 235 237 241 247 251 258 261 263 268 273 280 285 287 288 293 302 303 295 292 293 295 299 308 328 339 338 335 330 325 319 316 313 311 313 316 315 315 312 307 304 300 293 283 273 267 258 250 242 241 240 235 231 231 231 229 227
194 197 197 195 197 198 200 201 201 200 200 202 203 204 206 207 208 209 208 208 213 217 218 219 220 223 227 229 234 239 243 245 249 253 257 260 264 267 272 279 283 285 287 293 301 302 298 292 288 290 296 303 329 346 346 341 335 328 321 314 309 306 305 306 307 311 313 307 301 298 293 287 284 278 266 254 243 241 242 240 236 235 236 234 231
194 198 199 198 199 199 202 204 204 204 205 206 206 208 210 210 210 212 214 213 217 221 222 222 222 224 228 232 237 242 245 247 248 252 255 258 263 266 270 274 278 281 281 288 300 304 302 293 285 287 293 299 317 337 342 340 335 331 327 321 317 312 302 298 299 302 308 309 304 299 294 291 293 290 279 266 250 243 243 242 239 236 239 239 235
193 196 197 198 199 200 202 206 206 206 208 209 209 210 213 214 212 214 217 219 223 225 224 225 224 225 228 233 237 240 243 245 246 247 250 255 260 264 267 269 274 278 277 283 295 304 304 296 287 286 293 305 316 327 334 334 331 332 331 324 322 318 308 299 296 296 298 301 304 305 302 299 301 301 291 278 259 246 242 240 238 236 239 241 238
195 196 196 197 199 201 204 206 207 208 211 213 213 213 215 217 217 217 220 224 227 228 227 228 228 229 230 232 235 237 240 243 245 245 247 251 256 260 263 267 271 275 276 279 289 300 304 298 295 294 300 312 319 323 327 327 326 332 331 323 320 319 320 315 306 299 293 291 295 302 309 308 309 309 300 283 264 247 241 240 237 235 236 237 238
197 197 198 200 200 203 207 207 208 210 213 216 218 217 217 218 218 219 222 225 228 229 229 230 231 232 233 233 234 236 240 243 244 245 247 251 255 259 262 267 270 271 273 276 285 297 302 301 300 300 303 311 318 320 323 324 325 330 328 323 322 325 331 331 328 318 304 293 288 292 301 304 309 316 314 294 274 261 251 247 243 238 238 237 237
197 198 201 202 202 205 208 209 210 212 216 220 222 222 221 221 220 221 224 227 229 229 230 232 233 235 238 239 240 240 243 247 247 246 248 252 257 263 266 268 271 271 271 274 285 298 305 305 302 301 303 308 314 317 320 323 328 331 329 327 324 327 331 329 331 330 319 307 295 297 304 306 306 310 316 303 282 271 263 256 250 245 243 243 240
199 200 202 203 205 208 209 211 212 213 218 220 221 223 225 227 227 225 227 229 229 230 231 233 235 238 244 248 249 249 249 251 251 251 252 256 260 264 266 268 272 274 272 277 288 299 305 306 303 302 301 304 309 315 323 330 336 338 338 335 327 324 321 317 319 319 316 312 304 302 305 308 305 304 309 308 292 278 269 262 255 249 246 244 244
201 200 202 205 207 208 209 211 211 215 219 219 220 222 225 230 232 232 232 233 233 233 235 238 241 245 251 257 259 257 256 255 255 257 258 260 261 263 267 269 273 275 276 280 286 294 299 303 306 304 302 304 312 324 336 341 341 340 342 337 331 327 319 315 316 317 317 314 310 309 311 312 309 305 305 304 301 291 281 272 262 255 249 246 244
204 202 204 207 208 208 210 211 212 216 219 220 221 221 225 229 232 235 235 237 238 238 240 243 246 251 256 257 257 257 256 255 255 255 258 259 261 263 268 272 276 278 277 278 280 285 292 302 308 308 309 311 319 334 345 345 340 339 341 341 342 338 331 328 327 327 325 320 317 317 319 320 317 311 306 301 297 295 295 287 275 263 253 249 247
207 207 207 208 209 210 212 214 215 217 219 221 222 223 226 228 231 234 235 239 243 243 245 249 250 253 256 250 245 249 251 250 248 249 253 255 257 261 267 276 278 277 275 274 276 282 289 298 307 312 314 314 320 330 340 341 338 338 340 343 346 343 339 336 336 336 333 331 331 331 333 335 332 321 308 304 296 286 288 290 287 277 263 257 254
209 210 209 208 209 211 213 216 218 220 221 222 224 226 228 231 233 234 235 238 242 243 244 250 250 248 250 245 241 246 248 246 243 247 251 253 257 258 259 269 271 269 273 277 280 283 282 286 299 310 308 309 315 322 328 333 335 336 335 341 344 341 338 339 346 355 357 1 1 1 6 9 7 355 321 311 303 287 279 277 280 283 277 270 266
209 211 212 212 212 213 214 216 219 221 223 224 225 227 230 234 234 234 237 240 244 244 241 245 247 244 246 246 244 245 245 245 245 247 252 255 259 256 250 259 263 262 273 280 283 281 275 277 296 308 305 306 311 317 319 321 328 331 330 336 343 344 344 351 7 15 20 32 34 30 31 34 38 39 32 10 346 317 297 287 282 279 278 277 275
209 211 213 213 214 215 215 217 219 221 223 225 226 227 231 233 232 235 240 243 246 247 244 245 245 242 245 246 245 244 244 247 251 253 257 254 251 249 248 254 255 258 271 278 280 280 277 278 292 302 305 305 307 312 313 315 322 326 328 333 344 354 3 24 33 36 50 54 46 40 37 39 44 48 52 51 41 22 352 325 307 294 287 283 280
209 209 210 211 212 213 215 217 219 222 223 224 224 225 227 230 232 233 233 234 240 245 246 247 244 238 238 241 243 244 244 249 253 256 255 245 237 237 235 234 244 262 273 278 280 280 277 277 283 292 300 301 302 310 318 324 322 320 326 332 345 6 38 59 50 53 66 59 47 46 44 44 45 47 50 51 50 45 34 11 340 316 303 295 290
209 207 207 208 210 212 214 216 219 221 223 223 222 221 221 223 225 223 223 227 234 236 235 238 237 232 233 239 242 243 247 253 249 242 238 229 218 211 207 218 258 274 275 279 281 276 273 278 283 286 291 294 299 312 328 333 320 314 327 332 350 41 94 70 51 59 67 56 49 48 48 52 52 48 46 46 47 47 43 35 25 8 340 317 302
207 207 208 209 211 213 214 217 220 220 222 223 222 221 221 222 222 224 228 231 232 232 232 234 234 232 239 248 249 247 249 248 236 223 214 203 194 191 199 234 258 264 268 275 280 276 274 278 278 278 283 291 300 313 329 331 304 305 324 327 353 58 103 66 46 60 70 58 48 44 46 52 55 50 45 42 40 37 31 24 21 18 12 1 341
207 208 209 210 212 213 215 218 220 221 221 222 222 223 224 225 228 233 235 234 234 235 236 239 239 239 243 245 245 240 229 218 209 202 193 187 188 197 211 227 243 257 262 262 265 268 264 258 263 273 286 299 305 320 343 341 293 307 321 322 359 38 72 33 28 51 71 59 45 41 41 46 52 49 44 42 37 32 26 15 8 4 359 351 337
206 206 207 209 211 214 217 219 220 222 221 220 222 225 225 226 229 233 234 233 235 236 235 235 239 238 233 227 221 209 199 193 189 188 187 189 197 206 211 218 235 251 252 246 242 242 242 247 262 274 284 294 303 329 6 2 326 321 329 62 60 31 30 345 347 26 62 56 41 38 38 43 49 47 44 43 39 33 28 19 11 6 355 338 328
204 205 206 207 210 214 217 220 222 222 221 222 222 222 221 221 221 221 222 224 226 227 223 221 222 220 218 212 200 190 189 188 185 187 190 196 202 204 207 216 227 235 239 237 232 232 235 242 261 276 275 273 297 329 353 346 360 112 213 220 112 107 169 309 316 350 27 34 34 33 36 42 46 45 42 42 41 39 35 28 22 18 13 360 350
205 206 207 208 210 214 217 220 221 221 222 222 221 219 218 217 214 210 208 208 208 210 213 213 210 208 208 202 193 189 189 189 189 192 196 197 198 198 201 209 220 226 229 229 225 230 248 270 286 313 317 266 319 330 321 320 319 149 187 208 212 240 214 258 290 327 346 3 21 23 33 40 44 44 40 39 40 41 40 37 33 28 25 20 13
207 207 207 208 210 213 217 219 221 221 222 222 220 218 216 216 215 213 212 210 208 212 216 216 212 211 207 198 194 191 190 191 194 196 196 195 193 192 196 204 213 221 229 235 234 236 250 267 276 302 7 128 60 332 310 316 150 144 152 173 197 217 200 171 147 158 335 325 346 9 28 37 41 40 37 36 36 38 41 43 44 41 36 29 21
208 206 206 207 210 213 217 220 220 220 221 221 220 219 217 216 216 217 218 219 221 224 223 215 212 214 208 201 198 194 191 193 196 196 193 191 190 189 195 203 209 220 229 231 227 219 219 223 230 237 177 140 109 61 348 4 123 131 135 147 163 171 162 149 135 130 132 270 321 347 2 9 29 37 33 32 31 34 40 44 46 44 42 38 30
207 206 206 208 210 213 216 219 219 219 220 221 220 220 220 220 219 219 221 224 228 231 225 214 209 210 206 200 195 190 189 191 193 193 190 189 191 191 195 202 210 219 220 215 210 203 202 201 197 188 160 141 134 99 78 110 129 135 143 148 151 153 157 164 151 135 147 204 290 309 326 341 0 14 21 26 24 28 37 42 42 39 38 37 34
207 207 207 208 209 212 215 217 218 218 219 220 220 220 220 220 220 220 222 225 225 224 217 207 204 203 199 193 188 185 184 185 186 189 191 192 193 194 196 202 211 213 209 206 201 194 190 184 172 160 145 136 145 132 118 148 153 155 162 165 161 160 168 188 198 180 185 234 259 276 288 306 322 336 359 11 12 16 21 30 34 31 31 31 30
208 208 207 208 209 211 214 216 219 219 219 219 219 220 220 220 221 222 224 225 222 217 207 199 196 195 193 189 186 184 184 185 186 191 194 193 193 194 197 203 206 200 197 195 187 178 173 167 162 155 150 149 163 160 171 188 187 183 179 180 180 179 186 204 207 197 195 214 235 275 277 283 288 297 335 350 354 1 2 10 19 19 21 22 22